TimeCST,TemperatureF,Dew PointF,Humidity,Sea Level PressureIn,VisibilityMPH,Wind Direction,Wind SpeedMPH,Gust SpeedMPH,PrecipitationIn,Events,Conditions,WindDirDegrees,DateUTC
12:53 AM,33.1,19.9,59,30.18,10.0,NNE,13.8,24.2,N/A,,Clear,20,2013-01-14 06:53:00
1:53 AM,32.0,19.9,61,30.24,10.0,NNE,8.1,-,N/A,,Clear,20,2013-01-14 07:53:00
2:53 AM,30.9,19.9,64,30.25,10.0,North,8.1,-,N/A,,Partly Cloudy,350,2013-01-14 08:53:00
3:53 AM,30.9,19.0,61,30.23,10.0,North,10.4,18.4,N/A,,Overcast,10,2013-01-14 09:53:00
4:53 AM,30.9,19.0,61,30.22,10.0,North,16.1,-,N/A,,Overcast,10,2013-01-14 10:53:00
6:53 AM,30.0,19.0,64,30.24,10.0,NNE,12.7,17.3,N/A,,Scattered Clouds,30,2013-01-14 12:53:00
7:53 AM,30.0,19.0,64,30.25,10.0,NNE,15.0,-,N/A,,Clear,30,2013-01-14 13:53:00
8:53 AM,30.9,19.9,64,30.26,10.0,NNE,16.1,20.7,N/A,,Clear,30,2013-01-14 14:53:00
9:53 AM,35.1,21.9,59,30.27,10.0,NNE,15.0,-,N/A,,Clear,20,2013-01-14 15:53:00
10:53 AM,37.0,23.0,57,30.27,10.0,NNE,11.5,-,N/A,,Clear,30,2013-01-14 16:53:00
11:53 AM,39.0,24.1,55,30.24,10.0,NNE,13.8,18.4,N/A,,Clear,30,2013-01-14 17:53:00
1:53 PM,46.0,24.1,42,30.17,10.0,NNE,13.8,20.7,N/A,,Clear,30,2013-01-14 19:53:00
3:53 PM,46.9,23.0,39,30.17,10.0,ENE,13.8,21.9,N/A,,Clear,60,2013-01-14 21:53:00
4:53 PM,46.0,23.0,40,30.17,10.0,ENE,10.4,19.6,N/A,,Clear,60,2013-01-14 22:53:00
5:53 PM,43.0,25.0,49,30.18,10.0,NE,10.4,-,N/A,,Clear,40,2013-01-14 23:53:00
6:53 PM,41.0,25.0,53,30.18,10.0,NE,9.2,-,N/A,,Clear,40,2013-01-15 00:53:00
7:53 PM,39.0,26.1,60,30.18,10.0,NE,9.2,-,N/A,,Scattered Clouds,40,2013-01-15 01:53:00
8:53 PM,39.0,26.1,60,30.18,10.0,NNE,12.7,19.6,N/A,,Overcast,30,2013-01-15 02:53:00
9:53 PM,37.9,26.1,62,30.16,10.0,NE,11.5,-,N/A,,Overcast,40,2013-01-15 03:53:00
10:53 PM,37.9,26.1,62,30.14,10.0,NE,15.0,19.6,N/A,,Overcast,40,2013-01-15 04:53:00
11:53 PM,37.9,26.1,62,30.13,10.0,NE,12.7,-,N/A,,Overcast,40,2013-01-15 05:53:00